Weather Roundup
Issued by NWS Springfield, MO

Home | Current Version | Previous Version | Text Only | Print | Product List | Glossary On
Versions: 1 2 3 4 5 6 7 8 9 10 11 12 13 14 15 16 17 18 19 20 21 22 23 24 25 26 27 28 29 30 31 32 33 34 35 36 37 38 39 40 41 42 43 44 45 46 47 48 49 50
000
NZUS99 KSGF 010057
HRRSGF

HOURLY WEATHER
NATIONAL WEATHER SERVICE SPRINGFIELD MO
800 PM CDT SAT APR 30 2016

......SGF CWA......

CITY           SKY/WX    TMP DP  RH WIND       PRES   REMARKS
SPRINGFIELD    PTCLDY    66  53  63 W8        29.79R
JOPLIN         CLEAR     63  53  70 CALM      29.81R
WEST PLAINS    TSTM      60  55  83 N15       29.81R
ROLLA          CLEAR     66  58  75 W3        29.76R
BRANSON        PTCLDY    66  59  77 CALM      29.80R

......SURROUNDING SGF CWA......

CITY           SKY/WX    TMP DP  RH WIND       PRES   REMARKS
CHANUTE        CLEAR     62  47  57 NW8       29.81R
PARSONS        CLEAR     62  50  64 NW6       29.82R
COFFEYVILLE    CLEAR     63  47  55 W7        29.81R
EMPORIA        MOCLDY    58  46  64 W10G16    29.81R
HARRISON AR    CLEAR     67  58  72 NW8       29.79R

......KANSAS AND MISSOURI......

CITY           SKY/WX    TMP DP  RH WIND       PRES   REMARKS
KANSAS CTY INT MOCLDY    60  49  66 NW3       29.79R
SEDALIA        PTCLDY    66  54  65 W5        29.78R
ST JOSEPH      PTCLDY    59  50  72 W5        29.79R
ST LOUIS       TSTM      63  56  78 E10       29.77R
KIRKSVILLE     MOCLDY    57  54  88 N9        29.80R
WICHITA        PTCLDY    57  40  52 W10       29.84R
TOPEKA         PTCLDY    61  46  57 NW7       29.79R
OLATHE         CLEAR     61  46  57 W7        29.79R

......TENNESSEE......

CITY           SKY/WX    TMP DP  RH WIND       PRES   REMARKS
MEMPHIS        NOT AVBL
NASHVILLE      LGT RAIN  69  66  90 S5        29.88R

......ARKANSAS.......

CITY           SKY/WX    TMP DP  RH WIND       PRES   REMARKS
FAYETTEVILLE   CLOUDY    64  60  87 W8        29.81R
FT SMITH       MOCLDY    68  59  73 W8        29.79R
LITTLE ROCK    MOCLDY    76  65  68 SE3       29.77R

......OKLAHOMA.......

CITY           SKY/WX    TMP DP  RH WIND       PRES   REMARKS
TULSA          PTCLDY    64  51  62 NW6       29.81R
PONCA CITY     CLEAR     61  44  53 NW6       29.84R
MCALESTER      MOCLDY    68  62  81 CALM      29.82R
OKLAHOMA CITY  CLEAR     65  45  48 N14       29.84R

......IOWA............

CITY           SKY/WX    TMP DP  RH WIND       PRES   REMARKS
DES MOINES     NOT AVBL
QUAD CITIES    CLOUDY    47  44  90 E16       29.88R FOG

......ILLINOIS........

CITY           SKY/WX    TMP DP  RH WIND       PRES   REMARKS
QUINCY         NOT AVBL
CHICAGO        LGT RAIN  45  43  93 NE15      29.92S FOG




USA.gov is the U.S. government's official web portal to all federal, state and local government web resources and services.